TimeAKST,TemperatureF,Dew PointF,Humidity,Sea Level PressureIn,VisibilityMPH,Wind Direction,Wind SpeedMPH,Gust SpeedMPH,PrecipitationIn,Events,Conditions,WindDirDegrees,DateUTC
12:54 AM,35.1,32.0,89,29.82,10.0,North,11.5,-,N/A,,Mostly Cloudy,10,2014-01-25 09:54:00
1:54 AM,37.9,33.1,83,29.78,10.0,North,12.7,-,0.00,Rain,Light Rain,10,2014-01-25 10:54:00
2:54 AM,37.9,34.0,86,29.75,10.0,NE,10.4,-,0.00,Rain,Light Rain,40,2014-01-25 11:54:00
3:54 AM,39.9,37.9,93,29.70,10.0,NNE,10.4,-,0.03,,Overcast,20,2014-01-25 12:54:00
4:54 AM,39.9,37.0,89,29.65,10.0,NNE,10.4,-,N/A,,Clear,30,2014-01-25 13:54:00
5:54 AM,39.9,37.0,89,29.62,10.0,NNE,6.9,-,N/A,,Scattered Clouds,30,2014-01-25 14:54:00
6:54 AM,44.1,35.1,71,29.61,10.0,ESE,16.1,21.9,N/A,,Scattered Clouds,110,2014-01-25 15:54:00
7:54 AM,46.0,35.1,66,29.60,10.0,East,23.0,29.9,N/A,,Scattered Clouds,100,2014-01-25 16:54:00
8:54 AM,46.0,34.0,63,29.59,10.0,East,24.2,35.7,N/A,,Scattered Clouds,100,2014-01-25 17:54:00
9:54 AM,45.0,34.0,65,29.59,10.0,East,24.2,33.4,N/A,,Scattered Clouds,90,2014-01-25 18:54:00
10:54 AM,46.0,34.0,63,29.59,10.0,East,25.3,34.5,N/A,,Scattered Clouds,100,2014-01-25 19:54:00
11:54 AM,46.0,34.0,63,29.57,10.0,East,25.3,38.0,N/A,,Partly Cloudy,80,2014-01-25 20:54:00
12:54 PM,46.9,34.0,61,29.56,10.0,East,25.3,38.0,N/A,,Partly Cloudy,90,2014-01-25 21:54:00
1:54 PM,46.9,34.0,61,29.55,10.0,East,25.3,32.2,N/A,,Partly Cloudy,80,2014-01-25 22:54:00
2:54 PM,46.0,35.1,66,29.53,10.0,East,28.8,39.1,N/A,,Partly Cloudy,90,2014-01-25 23:54:00
3:54 PM,45.0,35.1,68,29.51,10.0,East,31.1,41.4,N/A,,Partly Cloudy,90,2014-01-26 00:54:00
4:54 PM,45.0,33.1,63,29.49,10.0,East,36.8,49.5,N/A,,Partly Cloudy,90,2014-01-26 01:54:00
5:54 PM,45.0,35.1,68,29.50,10.0,East,32.2,49.5,N/A,,Partly Cloudy,90,2014-01-26 02:54:00
6:54 PM,44.1,35.1,71,29.50,10.0,East,31.1,41.4,N/A,,Partly Cloudy,80,2014-01-26 03:54:00
7:54 PM,45.0,34.0,65,29.49,10.0,East,27.6,40.3,N/A,,Partly Cloudy,80,2014-01-26 04:54:00
8:54 PM,46.0,34.0,63,29.47,10.0,East,32.2,47.2,N/A,,Partly Cloudy,90,2014-01-26 05:54:00
9:54 PM,46.9,32.0,56,29.46,10.0,East,19.6,29.9,N/A,,Partly Cloudy,80,2014-01-26 06:54:00
10:54 PM,46.0,32.0,58,29.42,10.0,ENE,24.2,32.2,N/A,,Clear,70,2014-01-26 07:54:00
11:54 PM,46.0,34.0,63,29.39,10.0,East,28.8,42.6,N/A,,Partly Cloudy,90,2014-01-26 08:54:00